KD8UGJ Weather Reports


time (UTC)temp
F
wind
direction
speed
knots
gust
knots
rain 1hr
in
rain 24hr
in
rain mn
in
humidity
%
barometer
mb
20260502234505 45 360 4.3 8.7 0.00 0.02 0.00 61 1018.2
20260502233008 45 360 5.2 8.7 0.00 0.02 0.00 61 1018.1
20260502231503 46 360 2.6 7.8 0.00 0.02 0.00 59 1018.1
20260502230002 45 360 4.3 9.6 0.00 0.02 0.00 60 1018.3
20260502224503 45 290 6.1 11.3 0.00 0.02 0.00 63 1018.2
20260502223002 45 360 5.2 10.4 0.00 0.02 0.00 65 1018.3
20260502221501 45 360 7.0 11.3 0.00 0.02 0.00 61 1018.3
20260502220001 45 360 5.2 12.2 0.00 0.02 0.00 64 1018.2
20260502214503 45 277 7.8 13.0 0.00 0.02 0.00 64 1018.3
20260502213125 45 360 9.6 13.0 0.00 0.02 0.00 64 1018.1
20260502211637 46 360 8.7 11.3 0.00 0.02 0.00 65 1018.1
20260502210110 46 360 7.8 13.0 0.00 0.02 0.00 64 1018.1
20260502204559 46 338 10.4 14.8 0.00 0.02 0.00 62 1018.1
20260502203102 47 320 7.8 14.8 0.00 0.02 0.00 63 1018.3
20260502201605 46 314 6.1 13.0 0.00 0.02 0.00 67 1018.2
20260502200057 46 307 8.7 13.9 0.00 0.02 0.00 63 1018.4
20260502194607 46 360 4.3 15.6 0.00 0.02 0.00 63 1018.6
20260502193057 46 360 12.2 15.6 0.00 0.02 0.00 61 1018.7
20260502191558 47 360 6.1 12.2 0.00 0.02 0.00 66 1018.7
20260502190054 47 360 8.7 13.9 0.00 0.02 0.00 69 1018.9
20260502184557 47 360 11.3 19.1 0.00 0.02 0.00 70 1018.9
20260502183104 45 360 9.6 12.2 0.00 0.02 0.00 66 1019.1
20260502181552 46 360 7.0 11.3 0.00 0.02 0.00 63 1019.1
20260502163050 42 318 5.2 12.2 0.00 0.03 0.00 73 1019.7
20260502161543 42 360 5.2 9.6 0.00 0.03 0.00 75 1019.7
20260502151543 42 334 4.3 7.8 0.00 0.09 0.00 72 1019.5
20260502123022 35 296 2.6 4.3 0.00 0.22 0.00 89 1018.7
20260502121522 35 360 2.6 4.3 0.00 0.22 0.00 89 1018.8
20260502114520 35 360 1.7 4.3 0.00 0.23 0.00 89 1018.7
20260502113018 34 300 0.9 4.3 0.00 0.23 0.00 89 1018.5
20260502111517 34 313 2.6 7.0 0.00 0.23 0.00 88 1018.3
20260502110017 34 360 2.6 6.1 0.00 0.24 0.00 88 1018.4
20260502104521 34 360 4.3 7.0 0.00 0.24 0.00 87 1018.2
20260502103015 34 360 6.1 8.7 0.00 0.24 0.00 87 1018.0
20260502101530 33 360 3.5 7.0 0.00 0.24 0.00 87 1018.2
20260502091505 34 360 5.2 8.7 0.00 0.28 0.00 83 1017.6
20260502080107 35 360 6.1 9.6 0.00 0.30 0.00 83 1017.5
20260502070058 37 360 5.2 7.8 0.00 0.32 0.00 82 1017.3
20260502064549 37 264 4.3 8.7 0.00 0.32 0.00 82 1017.5
20260502063045 37 273 5.2 8.7 0.00 0.32 0.00 82 1017.4
20260502061543 38 360 4.3 8.7 0.00 0.32 0.00 84 1017.5
20260502060039 38 360 5.2 8.7 0.00 0.32 0.00 85 1017.5
20260502054540 38 360 3.5 7.0 0.00 0.32 0.00 85 1017.6
20260502053035 39 360 3.5 7.8 0.00 0.32 0.00 86 1017.5
20260502051531 40 275 4.3 8.7 0.00 0.32 0.00 86 1017.6
20260502050035 40 360 3.5 7.0 0.00 0.32 0.32 85 1017.6
20260502044528 41 360 0.9 4.3 0.00 0.32 0.32 84 1017.7
20260502043026 42 360 2.6 4.3 0.00 0.32 0.32 83 1017.9
20260502041526 42 263 0.9 4.3 0.00 0.32 0.32 84 1017.9
20260502040029 42 270 1.7 4.3 0.00 0.32 0.32 83 1017.9
20260502034529 42 360 4.3 7.0 0.00 0.32 0.32 84 1017.8
20260502033025 42 269 4.3 7.8 0.00 0.32 0.32 86 1017.9
20260502031523 42 360 0.9 3.5 0.00 0.32 0.32 85 1017.6
20260502030023 42 360 3.5 5.2 0.00 0.32 0.32 84 1017.6
20260502024522 41 272 3.5 7.8 0.00 0.32 0.32 86 1017.6
20260502023020 41 297 0.0 0.9 0.00 0.32 0.32 85 1017.3
20260502021519 42 296 0.9 2.6 0.00 0.32 0.32 84 1017.2
20260502020018 42 299 0.0 2.6 0.00 0.32 0.32 83 1016.9
20260502014520 42 305 2.6 4.3 0.00 0.32 0.32 84 1016.9
20260502013017 42 319 5.2 13.9 0.00 0.32 0.32 84 1016.9
20260502011522 42 360 11.3 17.4 0.00 0.32 0.32 85 1016.7
20260502010015 41 238 3.5 7.8 0.00 0.32 0.32 89 1016.6
20260502004512 42 360 1.7 3.5 0.00 0.32 0.32 88 1016.3
20260502003010 42 323 0.0 0.0 0.02 0.32 0.32 87 1016.2
20260502001512 42 323 0.0 0.9 0.02 0.32 0.32 87 1016.1
20260502000009 42 320 1.7 3.5 0.02 0.32 0.32 85 1016.0